Weather History for KELY - February, 2014

Change the Weather History Date:

Wednesday, February 5, 2014

  Actual Average Record
Temperature  
Mean Temperature 15 °F 27 °F  
Max Temperature 33 °F 41 °F 64 °F (1963)
Min Temperature -4 °F 13 °F -27 °F (1989)
Degree Days  
Heating Degree Days 50 38  
Month to date heating degree days 259 192  
Since 1 July heating degree days 4380 4521  
Cooling Degree Days 0 0  
Month to date cooling degree days 0 0  
Year to date cooling degree days 0 0  
Moisture  
Dew Point 4 °F    
Average Humidity 65    
Maximum Humidity 87    
Minimum Humidity 43    
Precipitation  
Precipitation 0.00 in 0.03 in 0.19 in (1976)
Month to date precipitation 0.01 0.12  
Year to date precipitation 0.80 0.82  
Snow  
Snow 0.00 in 0.30 in 3.90 in (1976)
Month to date snowfall 0.8 1.4  
Since 1 July snowfall 36.5 28.4  
Snow Depth 6.00 in    
Sea Level Pressure  
Sea Level Pressure 30.18 in    
Wind  
Wind Speed 9 mph (SSE)    
Max Wind Speed 17 mph    
Max Gust Speed 22 mph    
Visibility 10 miles    
Events      
T = Trace of Precipitation, MM = Missing Value Source: NWS Daily Summary

Daily Weather History Graph

Daily Weather History Graph

Search for Another Location

Airport or City:

Trip Planner

Search our weather history database for the weather conditions in past years. The results will help you decide how hot, cold, wet, or windy it might be!

Date:

Astronomy

Feb. 05, 2014 Rise Set
Actual Time 6:42 AM PST 5:04 PM PST
Civil Twilight 6:14 AM PST 5:32 PM PST
Nautical Twilight 5:42 AM PST 6:04 PM PST
Astronomical Twilight 5:11 AM PST 6:36 PM PST
Moon 10:02 AM PST (2/5) No Moon Set
Length of Visible Light 11h 18m
Length of Day
10h 22m
Waxing Crescent, 40% of the Moon is Illuminated
Feb 5
Waxing Crescent
Feb 6
First Quarter
Feb 14
Full
Feb 22
Last Quarter
Mar 1
New

Hourly Weather History & Observations

Time (PST) Temp. Windchill Dew Point Humidity Pressure Visibility Wind Dir Wind Speed Gust Speed Precip Events Conditions
12:53 AM -2.9 °F -23.1 °F -7.1 °F 82% 30.25 in 10.0 mi South 15.0 mph - N/A   Clear
1:53 AM -2.0 °F -20.5 °F -6.0 °F 83% 30.25 in 10.0 mi South 12.7 mph - N/A   Clear
2:53 AM -0.9 °F -20.6 °F -5.1 °F 83% 30.22 in 10.0 mi SSE 15.0 mph - N/A   Clear
3:53 AM 1.9 °F -16.9 °F -2.9 °F 80% 30.19 in 10.0 mi South 15.0 mph - N/A   Clear
4:53 AM -2.9 °F -21.6 °F -7.1 °F 82% 30.23 in 10.0 mi South 12.7 mph - N/A   Clear
5:53 AM -2.9 °F -21.6 °F -7.1 °F 82% 30.27 in 10.0 mi South 12.7 mph - N/A   Clear
6:53 AM -0.9 °F -19.9 °F -5.1 °F 83% 30.30 in 10.0 mi South 13.8 mph - N/A   Mostly Cloudy
7:53 AM 1.9 °F -14.7 °F -2.9 °F 80% 30.31 in 10.0 mi SSE 11.5 mph - N/A   Overcast
8:53 AM 10.9 °F -2.6 °F 5.0 °F 77% 30.28 in 10.0 mi South 10.4 mph - N/A   Overcast
9:53 AM 16.0 °F 3.6 °F 8.1 °F 71% 30.26 in 10.0 mi South 10.4 mph - N/A   Overcast
10:53 AM 21.0 °F 10.6 °F 12.9 °F 71% 30.22 in 10.0 mi South 9.2 mph - N/A   Mostly Cloudy
11:53 AM 26.1 °F 19.4 °F 12.0 °F 55% 30.17 in 10.0 mi South 5.8 mph - N/A   Partly Cloudy
12:53 PM 28.0 °F 21.7 °F 12.9 °F 53% 30.13 in 10.0 mi South 5.8 mph - N/A   Clear
1:53 PM 30.0 °F 24.1 °F 10.9 °F 45% 30.10 in 10.0 mi East 5.8 mph - N/A   Mostly Cloudy
2:53 PM 32.0 °F 27.5 °F 12.0 °F 44% 30.08 in 10.0 mi Variable 4.6 mph - N/A   Overcast
3:53 PM 30.9 °F - 10.0 °F 42% 30.07 in 10.0 mi Calm Calm - N/A   Partly Cloudy
4:53 PM 26.1 °F - 10.9 °F 53% 30.12 in 10.0 mi Calm Calm - N/A   Scattered Clouds
5:53 PM 19.0 °F 13.9 °F 12.0 °F 74% 30.17 in 10.0 mi Variable 3.5 mph - N/A   Scattered Clouds
6:53 PM 17.1 °F 5.8 °F 10.0 °F 74% 30.17 in 10.0 mi SSE 9.2 mph - N/A   Overcast
7:53 PM 14.0 °F 2.0 °F 8.1 °F 77% 30.18 in 10.0 mi South 9.2 mph - N/A   Mostly Cloudy
8:53 PM 10.9 °F - 6.1 °F 81% 30.16 in 10.0 mi Calm Calm - N/A   Overcast
9:53 PM 10.9 °F -4.1 °F 5.0 °F 77% 30.12 in 10.0 mi South 12.7 mph - N/A   Clear
10:53 PM 9.0 °F -5.9 °F 3.9 °F 80% 30.11 in 10.0 mi South 11.5 mph - N/A   Partly Cloudy
11:53 PM 7.0 °F -9.1 °F 1.9 °F 80% 30.09 in 10.0 mi South 12.7 mph - N/A   Clear